[[{"header":{"parameterUnit":"m.s-1","parameterCategory":1,"la1":30.2991,"la2":30.254,"lo1":-89.0895,"lo2":-89.0444,"dy":0.0017,"dx":0.0017,"nx":28,"ny":28,"refTime":"2025-04-04T09:00:00:Z","depth":0,"parameterNumber":2,"parameterNumberName":"U-component_of_WINDS"},"data":[0,0,0,0,0,0,0,0,0,0,0,0,0,0,0,0,0,0,0,0,0,0,0,0,0,0,0,0,0,0,0,0,0,0,0,0,0,0,0,0,0,0,0,0,0,0,0,0,0,0,0,0,0,0,0,0,0,0,-4.0513,-4.0515,0,-4.0666,-4.0668,-4.0669,-4.0718,-4.0718,-4.0717,-4.0716,-4.0872,-4.0877,-4.0881,0,0,0,0,0,0,0,0,0,0,0,0,0,-4.0264,-4.0268,-4.0513,-4.0515,-4.0517,-4.0666,-4.0668,-4.067,-4.0719,-4.0718,-4.0717,-4.0716,-4.087,-4.0876,-4.0882,0,0,0,0,0,0,0,0,0,0,0,0,0,-4.039,-4.027,-4.0513,-4.0559,-4.0565,-4.0665,-4.0668,-4.067,-4.0719,-4.0718,-4.0717,-4.0716,-4.0868,-4.0875,-4.0882,-4.0947,0,0,-4.0904,-4.0907,0,0,0,0,0,0,0,0,-4.0383,-4.0399,-4.055,-4.0556,-4.0563,-4.0672,-4.0637,-4.0763,-4.0719,-4.066,-4.0716,-4.0715,-4.0806,-4.0818,-4.0849,-4.0955,-4.0961,-4.0905,-4.0909,-4.0912,-4.0914,0,0,0,0,0,0,0,-4.0374,-4.0393,-4.0574,-4.0553,-4.056,-4.0573,-4.0589,-4.0661,-4.0737,-4.0665,-4.0669,-4.0687,-4.0809,-4.0842,-4.0853,-4.0964,-4.0905,-4.0911,-4.0916,-4.0918,-4.1131,-4.1132,0,0,0,0,0,0,-4.0357,-4.0385,-4.0569,-4.0578,-4.0468,-4.0578,-4.0597,-4.0638,-4.0736,-4.0751,-4.0687,-4.0688,-4.083,-4.0845,-4.0859,-4.0941,-4.0912,-4.0919,-4.0923,-4.1129,-4.1131,-4.1132,0,0,0,0,0,0,-4.0352,-4.0373,-4.0563,-4.0483,-4.0508,-4.0583,-4.0629,-4.0642,-4.0674,-4.0753,-4.0767,-4.0707,-4.083,-4.0849,-4.0925,-4.0947,-4.0922,-4.0929,-4.1128,-4.113,-4.1132,-4.1106,0,0,0,0,0,0,-4.0344,-4.0371,-4.0396,-4.0483,-4.0512,-4.0626,-4.0631,-4.0645,-4.0687,-4.069,-4.0775,-4.0788,-4.0831,-4.0914,-4.0932,-4.0957,-4.0934,-4.1126,-4.1129,-4.1131,-4.1105,-4.1107,-4.1108,0,0,0,0,0,-4.0335,-4.0383,-4.0397,-4.0419,-4.0545,-4.0627,-4.0644,-4.0692,-4.0688,-4.0714,-4.0765,-4.0786,-4.0942,-4.0922,-4.0942,-4.0969,-4.1125,-4.1128,-4.1131,-4.1104,-4.1106,-4.1108,0,0,0,0,0,0,-4.0296,-4.0395,-4.0412,-4.0489,-4.0549,-4.0635,-4.0669,-4.0692,-4.0755,-4.0754,-4.0812,-4.0831,-4.0902,-4.0944,-4.0919,-4.1038,-4.1035,-4.1042,-4.1007,-4.101,-4.1012,-4.0999,-4.094,0,0,0,0,0,-4.0296,-4.0354,-4.0438,-4.0498,-4.0527,-4.0593,-4.0631,-4.0663,-4.0727,-4.0753,-4.0809,-4.0871,-4.0935,-4.0975,-4.1038,-4.1112,-4.1131,-4.1141,-4.1143,-4.1144,-4.1149,-4.1191,-4.1196,-4.1142,-4.1142,-4.1142,0,0,-4.0297,-4.0358,-4.0391,-4.0491,-4.0542,-4.0601,-4.0614,-4.0676,-4.072,-4.0762,-4.0838,-4.0882,-4.0955,-4.103,-4.1066,-4.1067,-4.1168,-4.1147,-4.1148,-4.1152,-4.1195,-4.12,-4.1204,-4.1144,-4.1144,-4.1144,0,0,-4.0328,-4.0381,-4.0436,-4.0487,-4.0564,-4.0608,-4.0621,-4.0704,-4.0735,-4.0812,-4.0845,-4.0899,-4.1007,-4.1057,-4.1097,-4.115,-4.1171,-4.1169,-4.1176,-4.1217,-4.1222,-4.1226,-4.1244,-4.1249,-4.1174,-4.1174,-4.1174,0,-4.0319,-4.041,-4.0462,-4.0522,-4.0565,-4.0607,-4.0664,-4.071,-4.0803,-4.0832,-4.0832,-4.0969,-4.1021,-4.1109,-4.1122,-4.1153,-4.117,-4.1158,-4.1217,-4.1221,-4.1226,-4.1244,-4.125,-4.1173,-4.1173,-4.1174,-4.1174,0,-4.0394,-4.0457,-4.0493,-4.0582,-4.0629,-4.0687,-4.0748,-4.079,-4.0819,-4.0862,-4.094,-4.1005,-4.1081,-4.1105,-4.1134,-4.1198,-4.1196,-4.1206,-4.1203,-4.1229,-4.1247,-4.1254,-4.1172,-4.1172,-4.1173,-4.1173,0,0,-4.0403,-4.0521,-4.0533,-4.0575,-4.0663,-4.0713,-4.0773,-4.0849,-4.0883,-4.0947,-4.0998,-4.109,-4.11,-4.1145,-4.118,-4.1216,-4.1253,-4.1222,-4.1224,-4.1224,-4.1327,-4.1318,-4.1325,-4.1269,-4.127,-4.1271,-4.1321,0,-4.0444,-4.0554,-4.0603,-4.0691,-4.0749,-4.0791,-4.0844,-4.0904,-4.0947,-4.1003,-4.1051,-4.1115,-4.1123,-4.1151,-4.1189,-4.124,-4.1274,-4.1238,-4.1317,-4.1319,-4.1295,-4.1335,-4.1325,-4.1368,-4.1328,-4.1329,-4.133,0,-4.0507,-4.0571,-4.0664,-4.0747,-4.0773,-4.0819,-4.0893,-4.0946,-4.1016,-4.1045,-4.1096,-4.113,-4.1195,-4.119,-4.1281,-4.1256,-4.1291,-4.1322,-4.1325,-4.1332,-4.1325,-4.1342,-4.1383,-4.1389,-4.1342,-4.1341,-4.134,0,-4.0502,-4.0612,-4.0682,-4.0716,-4.0814,-4.0846,-4.0889,-4.0957,-4.1,-4.1064,-4.1092,-4.1164,-4.1202,-4.1257,-4.1309,-4.1301,-4.1395,-4.1394,-4.1421,-4.1419,-4.1437,-4.1434,-4.1483,-4.1462,-4.1462,-4.1462,-4.1462,0,-4.0543,-4.0598,-4.0681,-4.0724,-4.0787,-4.0844,-4.0905,-4.0951,-4.1012,-4.1064,-4.1106,-4.1154,-4.1221,-4.1278,-4.132,-4.1388,-4.1406,-4.1431,-4.1441,-4.1426,-4.1423,-4.1449,-4.1447,-4.1464,-4.1464,-4.1463,-4.1463,0,-4.0547,-4.0605,-4.0684,-4.0771,-4.0794,-4.0837,-4.0912,-4.0955,-4.1001,-4.1067,-4.1086,-4.1158,-4.1228,-4.1286,-4.1377,-4.1405,-4.1476,-4.1489,-4.1453,-4.1458,-4.148,-4.1476,-4.1545,-4.1557,-4.153,-4.153,-4.153,0,-4.0568,-4.0611,-4.0703,-4.0742,-4.0784,-4.0845,-4.0889,-4.0947,-4.0991,-4.1074,-4.1107,-4.118,-4.1241,-4.135,-4.1411,-4.1481,-4.1495,-4.1515,-4.1506,-4.149,-4.1494,-4.149,-4.1495,-4.1514,-4.1514,-4.1514,-4.1514,0,-4.0599,-4.0626,-4.0687,-4.0759,-4.081,-4.087,-4.093,-4.0959,-4.1029,-4.1076,-4.1148,-4.1195,-4.1289,-4.1361,-4.1438,-4.1482,-4.151,-4.1517,-4.1527,-4.1511,-4.1488,-4.15,-4.1453,-4.1515,-4.1515,-4.1515,-4.1514,-4.1514,-4.0612,-4.0652,-4.0723,-4.0791,-4.0842,-4.0898,-4.0943,-4.0996,-4.1056,-4.1137,-4.1168,-4.1241,-4.1311,-4.1418,-4.1463,-4.1521,-4.1524,-4.1538,-4.1542,-4.1544,-4.1541,-4.148,-4.1535,-4.1535,-4.1536,-4.1536,-4.1536,0,-4.0644,-4.0692,-4.0753,-4.0837,-4.089,-4.0913,-4.0981,-4.1024,-4.1088,-4.1151,-4.121,-4.1293,-4.1363,-4.143,-4.1503,-4.1537,-4.1552,-4.1554,-4.1551,-4.1561,-4.1534,-4.1518,-4.1541,-4.1541,-4.1541,-4.1541,-4.1541,-4.1541,-4.0666,-4.0736,-4.0771,-4.0868,-4.0916,-4.0988,-4.1025,-4.1077,-4.1127,-4.1218,-4.1276,-4.132,-4.1385,-4.1463,-4.1529,-4.1547,-4.1571,-4.157,-4.1591,-4.1564,-4.1563,-4.1562,-4.1547,-4.1575,-4.1575,-4.1613,-4.1614,-4.1614]},{"header":{"parameterUnit":"m.s-1","parameterCategory":1,"la1":30.2991,"la2":30.254,"lo1":-89.0895,"lo2":-89.0444,"dy":0.0017,"dx":0.0017,"nx":28,"ny":28,"refTime":"2025-04-04T09:00:00:Z","depth":0,"parameterNumber":3,"parameterNumberName":"V-component_of_WINDS"},"data":[0,0,0,0,0,0,0,0,0,0,0,0,0,0,0,0,0,0,0,0,0,0,0,0,0,0,0,0,0,0,0,0,0,0,0,0,0,0,0,0,0,0,0,0,0,0,0,0,0,0,0,0,0,0,0,0,0,0,4.3596,4.3597,0,4.3712,4.3713,4.3714,4.3748,4.3747,4.3747,4.3746,4.3863,4.3867,4.387,0,0,0,0,0,0,0,0,0,0,0,0,0,4.3404,4.3407,4.3596,4.3597,4.3598,4.3711,4.3713,4.3715,4.3748,4.3747,4.3746,4.3746,4.3862,4.3866,4.3871,0,0,0,0,0,0,0,0,0,0,0,0,0,4.35,4.3408,4.3595,4.3629,4.3633,4.3711,4.3713,4.3715,4.3748,4.3747,4.3746,4.3745,4.386,4.3866,4.3871,4.3924,0,0,4.3888,4.389,0,0,0,0,0,0,0,0,4.3494,4.3507,4.3622,4.3627,4.3631,4.3714,4.3688,4.3785,4.3748,4.3704,4.3746,4.3745,4.3814,4.3823,4.3847,4.3929,4.3934,4.3889,4.3892,4.3894,4.3896,0,0,0,0,0,0,0,4.3488,4.3502,4.3641,4.3624,4.363,4.3638,4.3651,4.3707,4.3763,4.3708,4.3711,4.3724,4.3816,4.3842,4.385,4.3936,4.3888,4.3893,4.3897,4.3899,4.4071,4.4072,0,0,0,0,0,0,4.3475,4.3496,4.3638,4.3645,4.3559,4.3642,4.3657,4.3689,4.3762,4.3773,4.3725,4.3725,4.3833,4.3844,4.3854,4.3924,4.3894,4.3899,4.3903,4.407,4.4071,4.4072,0,0,0,0,0,0,4.3471,4.3488,4.3633,4.3572,4.3591,4.3647,4.3682,4.3691,4.3717,4.3775,4.3785,4.374,4.3832,4.3847,4.3907,4.3928,4.3902,4.3907,4.4068,4.407,4.4072,4.406,0,0,0,0,0,0,4.3466,4.3486,4.3506,4.3572,4.3594,4.3684,4.3684,4.3694,4.3726,4.3728,4.3792,4.3802,4.3833,4.3899,4.3913,4.3935,4.3911,4.4067,4.4069,4.4071,4.4059,4.4062,4.4064,0,0,0,0,0,4.3459,4.3497,4.3507,4.3524,4.362,4.3685,4.3698,4.3733,4.3728,4.3749,4.3787,4.38,4.3923,4.3905,4.3921,4.3945,4.4065,4.4068,4.4071,4.4058,4.4061,4.4064,0,0,0,0,0,0,4.3432,4.3506,4.3518,4.3579,4.3626,4.369,4.3718,4.3734,4.3782,4.3782,4.3823,4.3837,4.3895,4.3926,4.3904,4.4002,4.3995,4.4001,4.3979,4.3983,4.3985,4.3977,4.3916,0,0,0,0,0,4.3433,4.3479,4.3542,4.359,4.3613,4.3661,4.3691,4.3714,4.3763,4.3783,4.3825,4.3872,4.3922,4.3954,4.4003,4.4064,4.4079,4.4088,4.4091,4.4092,4.4097,4.4135,4.414,4.4082,4.4082,4.4082,0,0,4.3436,4.3482,4.3509,4.3586,4.3624,4.3672,4.3678,4.3727,4.3763,4.379,4.3851,4.3884,4.3939,4.4001,4.4031,4.4029,4.4117,4.4096,4.4097,4.4101,4.4138,4.4144,4.4149,4.4084,4.4083,4.4083,0,0,4.3466,4.3505,4.3551,4.359,4.3649,4.3682,4.3693,4.3756,4.3779,4.3841,4.3864,4.3907,4.3991,4.4031,4.4062,4.411,4.4124,4.4124,4.4137,4.4173,4.4177,4.4182,4.4201,4.4208,4.4129,4.4129,4.4129,0,4.3462,4.3535,4.3572,4.3622,4.3656,4.3684,4.3731,4.3767,4.3839,4.3862,4.3859,4.3967,4.4006,4.4079,4.4092,4.4115,4.413,4.4118,4.4174,4.4179,4.4183,4.4202,4.4209,4.4129,4.4129,4.4129,4.4129,0,4.3528,4.3579,4.3608,4.3679,4.3716,4.3764,4.3809,4.3843,4.3863,4.3896,4.396,4.4008,4.4069,4.4088,4.4107,4.4164,4.4162,4.4166,4.416,4.4188,4.4207,4.4214,4.4129,4.4129,4.4129,4.4129,0,0,4.3544,4.3636,4.3647,4.368,4.3749,4.3789,4.3838,4.3899,4.3928,4.3976,4.4021,4.4092,4.4098,4.4133,4.4157,4.4189,4.4227,4.4189,4.4191,4.4197,4.4296,4.4295,4.4302,4.4237,4.4239,4.424,4.4293,0,4.3584,4.3676,4.3712,4.3786,4.3835,4.3863,4.3907,4.3954,4.3987,4.4033,4.4069,4.4121,4.4122,4.4144,4.4176,4.4216,4.4248,4.4212,4.428,4.4282,4.4267,4.4312,4.4309,4.4357,4.43,4.4301,4.4302,0,4.3644,4.3695,4.3775,4.384,4.3862,4.3901,4.396,4.4004,4.4058,4.408,4.4121,4.4144,4.4199,4.4189,4.4267,4.4241,4.4271,4.4295,4.4298,4.4307,4.4295,4.4324,4.4373,4.438,4.4314,4.4313,4.4312,0,4.365,4.3739,4.3799,4.3827,4.3903,4.3931,4.3964,4.4018,4.4053,4.4105,4.4128,4.4185,4.4217,4.4261,4.43,4.4289,4.4375,4.4367,4.4396,4.4395,4.4413,4.4412,4.4469,4.4429,4.4429,4.4429,4.4429,0,4.3693,4.3741,4.3804,4.384,4.3896,4.3937,4.3991,4.4026,4.4075,4.412,4.4147,4.4189,4.4237,4.4285,4.4315,4.4376,4.439,4.441,4.4418,4.4409,4.4406,4.443,4.4428,4.4431,4.443,4.443,4.443,0,4.3709,4.3753,4.3821,4.3889,4.3908,4.3946,4.4004,4.4042,4.4077,4.4134,4.4149,4.4204,4.4263,4.4306,4.438,4.4401,4.4467,4.4474,4.4449,4.4453,4.448,4.4478,4.4556,4.457,4.4518,4.4519,4.4519,0,4.3734,4.3773,4.3846,4.3879,4.3912,4.3964,4.4001,4.4043,4.408,4.4147,4.4177,4.4238,4.4289,4.4381,4.4428,4.4486,4.4496,4.4519,4.4505,4.4495,4.4499,4.4497,4.4502,4.4522,4.4522,4.4522,4.4522,0,4.3775,4.3796,4.3847,4.3908,4.3951,4.4,4.4049,4.4075,4.4126,4.4167,4.4228,4.4267,4.4345,4.4406,4.447,4.4504,4.4523,4.4527,4.4537,4.4529,4.4514,4.4525,4.4457,4.4525,4.4525,4.4524,4.4524,4.4524,4.3799,4.3835,4.3893,4.3951,4.3993,4.4039,4.4079,4.412,4.4171,4.4239,4.4261,4.4325,4.4381,4.4469,4.4504,4.4555,4.4555,4.4569,4.4573,4.4576,4.4577,4.4504,4.4567,4.4567,4.4567,4.4567,4.4567,0,4.3843,4.3882,4.3935,4.4005,4.405,4.4064,4.4121,4.4158,4.4214,4.4265,4.4316,4.4387,4.4447,4.4499,4.4561,4.4592,4.4602,4.4607,4.4606,4.4615,4.4572,4.4559,4.4598,4.4598,4.4598,4.4598,4.4598,4.4598,4.3872,4.3935,4.3963,4.4048,4.4087,4.4151,4.4182,4.4226,4.4267,4.4346,4.4396,4.443,4.4482,4.4549,4.4605,4.4619,4.4642,4.4645,4.4661,4.4621,4.4617,4.4614,4.4601,4.4649,4.4649,4.47,4.47,4.47]}]]